カタログに戻る

COSMOS 2251 DEB

運用中LEO
NORAD 34576·DEBRIS·🇷🇺 Russia

打ち上げ Jun 16, 1993 から Plesetsk Cosmodrome

Loading…

次のパス (今後24時間)

TLE

最新Source: Space-Track

元期: Sep 14, 2026, 09:16 UTC

1 34576U 93036VN  26257.38663898  .00001534  00000-0  34782-3 0  9999
2 34576  74.0346 335.2245 0007470  26.6557  93.6841 14.56947163924792

AllMySatでCOSMOS 2251 DEBをリアルタイム追跡

Download on the App Store